| time (UTC) | temp F | wind direction | speed MPH | gust MPH | rain 1hr in | rain 24hr in | rain mn in | humidity % | barometer mb |
| 20260510173833 | 63 | 100 | 3.0 | 5.0 | 0.12 | 0.47 | 0.47 | 97 | 1018.8 |
| 20260510173329 | 64 | 57 | 2.0 | 3.0 | 0.12 | 0.46 | 0.46 | 97 | 1018.7 |
| 20260510172825 | 63 | 58 | 1.0 | 2.0 | 0.17 | 0.45 | 0.45 | 97 | 1019.0 |
| 20260510172321 | 64 | 48 | 2.0 | 3.0 | 0.61 | 0.44 | 0.44 | 96 | 1019.2 |
| 20260510171818 | 64 | 355 | 2.0 | 5.0 | 1.39 | 0.42 | 0.42 | 95 | 1019.1 |
| 20260510171315 | 64 | 68 | 2.0 | 5.0 | 1.13 | 0.36 | 0.36 | 93 | 1018.9 |
| 20260510170812 | 65 | 35 | 4.0 | 8.0 | 0.24 | 0.20 | 0.20 | 90 | 1019.4 |
| 20260510170308 | 68 | 1 | 3.0 | 5.0 | 0.00 | 0.16 | 0.16 | 84 | 1019.3 |
| 20260510165803 | 69 | 326 | 6.0 | 9.0 | 0.00 | 0.16 | 0.16 | 79 | 1018.9 |
| 20260510165300 | 70 | 313 | 4.0 | 5.0 | 0.00 | 0.16 | 0.16 | 77 | 1018.4 |
| 20260510164757 | 73 | 343 | 7.0 | 10.0 | 0.00 | 0.16 | 0.16 | 73 | 1018.6 |
| 20260510164255 | 78 | 2 | 7.0 | 11.0 | 0.00 | 0.16 | 0.16 | 68 | 1018.3 |
| 20260510163755 | 79 | 210 | 3.0 | 3.0 | 0.00 | 0.16 | 0.16 | 66 | 1017.2 |
| 20260510163251 | 79 | 192 | 1.0 | 1.0 | 0.00 | 0.16 | 0.16 | 66 | 1016.9 |
| 20260510162750 | 79 | 181 | 4.0 | 7.0 | 0.00 | 0.16 | 0.16 | 66 | 1016.5 |
| 20260510162248 | 81 | 204 | 1.0 | 1.0 | 0.00 | 0.16 | 0.16 | 65 | 1016.3 |
| 20260510161743 | 81 | 160 | 2.0 | 2.0 | 0.00 | 0.16 | 0.16 | 64 | 1016.2 |
| 20260510161239 | 82 | 162 | 3.0 | 5.0 | 0.00 | 0.16 | 0.16 | 63 | 1016.0 |
| 20260510160737 | 82 | 131 | 1.0 | 1.0 | 0.00 | 0.16 | 0.16 | 63 | 1016.0 |
| 20260510160232 | 81 | 145 | 3.0 | 3.0 | 0.00 | 0.16 | 0.16 | 63 | 1015.7 |
| 20260510155728 | 80 | 142 | 2.0 | 3.0 | 0.00 | 0.16 | 0.16 | 66 | 1015.6 |
| 20260510155224 | 79 | 94 | 3.0 | 5.0 | 0.00 | 0.16 | 0.16 | 66 | 1015.4 |
| 20260510154721 | 79 | 153 | 2.0 | 3.0 | 0.00 | 0.16 | 0.16 | 66 | 1015.0 |
| 20260510154216 | 78 | 171 | 6.0 | 8.0 | 0.00 | 0.16 | 0.16 | 67 | 1015.0 |
| 20260510153711 | 78 | 191 | 1.0 | 2.0 | 0.00 | 0.16 | 0.16 | 68 | 1015.1 |
| 20260510153208 | 77 | 201 | 2.0 | 3.0 | 0.00 | 0.16 | 0.16 | 68 | 1015.1 |
| 20260510152704 | 78 | 222 | 2.0 | 2.0 | 0.00 | 0.16 | 0.16 | 68 | 1015.4 |
| 20260510152201 | 78 | 226 | 5.0 | 6.0 | 0.00 | 0.16 | 0.16 | 67 | 1015.4 |
| 20260510151658 | 76 | 150 | 1.0 | 2.0 | 0.00 | 0.16 | 0.16 | 70 | 1015.2 |
| 20260510151156 | 76 | 181 | 2.0 | 2.0 | 0.00 | 0.16 | 0.16 | 69 | 1015.1 |
| 20260510150651 | 75 | 182 | 3.0 | 5.0 | 0.00 | 0.16 | 0.16 | 71 | 1015.3 |
| 20260510150147 | 74 | 126 | 3.0 | 6.0 | 0.00 | 0.16 | 0.16 | 73 | 1015.1 |
| 20260510145644 | 73 | 210 | 4.0 | 7.0 | 0.00 | 0.16 | 0.16 | 74 | 1015.1 |
| 20260510145140 | 73 | 175 | 1.0 | 2.0 | 0.00 | 0.16 | 0.16 | 76 | 1014.9 |
| 20260510144636 | 73 | 186 | 1.0 | 1.0 | 0.00 | 0.16 | 0.16 | 77 | 1015.0 |
| 20260510144132 | 72 | 156 | 1.0 | 2.0 | 0.00 | 0.16 | 0.16 | 77 | 1015.3 |
| 20260510143628 | 71 | 191 | 2.0 | 2.0 | 0.00 | 0.16 | 0.16 | 80 | 1015.3 |
| 20260510143125 | 71 | 178 | 2.0 | 5.0 | 0.00 | 0.16 | 0.16 | 81 | 1015.6 |
| 20260510142621 | 71 | 133 | 1.0 | 1.0 | 0.00 | 0.16 | 0.16 | 81 | 1015.6 |
| 20260510142118 | 69 | 158 | 2.0 | 2.0 | 0.00 | 0.16 | 0.16 | 83 | 1015.6 |
| 20260510141615 | 69 | 208 | 2.0 | 2.0 | 0.00 | 0.16 | 0.16 | 84 | 1015.8 |
| 20260510141113 | 68 | 153 | 3.0 | 5.0 | 0.00 | 0.16 | 0.16 | 87 | 1016.1 |
| 20260510140609 | 67 | 173 | 4.0 | 5.0 | 0.00 | 0.16 | 0.16 | 89 | 1016.3 |
| 20260510140108 | 66 | 150 | 3.0 | 3.0 | 0.00 | 0.16 | 0.16 | 91 | 1016.5 |
| 20260510135604 | 66 | 179 | 3.0 | 3.0 | 0.00 | 0.16 | 0.16 | 93 | 1016.4 |
| 20260510135100 | 66 | 175 | 1.0 | 1.0 | 0.00 | 0.16 | 0.16 | 95 | 1016.8 |
| 20260510134558 | 65 | 157 | 3.0 | 3.0 | 0.00 | 0.16 | 0.16 | 96 | 1016.7 |
| 20260510134054 | 65 | 201 | 1.0 | 2.0 | 0.00 | 0.16 | 0.16 | 97 | 1016.7 |
| 20260510133550 | 65 | 186 | 1.0 | 1.0 | 0.00 | 0.16 | 0.16 | 98 | 1016.8 |
| 20260510133046 | 64 | 175 | 2.0 | 2.0 | 0.00 | 0.16 | 0.16 | 98 | 1016.8 |
| 20260510132543 | 64 | 185 | 3.0 | 3.0 | 0.00 | 0.16 | 0.16 | 98 | 1016.8 |
| 20260510132040 | 64 | 198 | 1.0 | 1.0 | 0.00 | 0.16 | 0.16 | 99 | 1016.5 |
| 20260510131538 | 64 | 165 | 2.0 | 2.0 | 0.00 | 0.16 | 0.16 | 99 | 1016.5 |
| 20260510131035 | 64 | 175 | 1.0 | 2.0 | 0.00 | 0.16 | 0.16 | 99 | 1016.2 |
| 20260510130531 | 64 | 147 | 3.0 | 5.0 | 0.00 | 0.16 | 0.16 | 99 | 1016.1 |
| 20260510130029 | 64 | 144 | 2.0 | 3.0 | 0.00 | 0.16 | 0.16 | 99 | 1016.3 |
| 20260510125525 | 64 | 100 | 1.0 | 1.0 | 0.00 | 0.16 | 0.16 | 99 | 1016.1 |
| 20260510125021 | 64 | 131 | 2.0 | 2.0 | 0.00 | 0.16 | 0.16 | 99 | 1016.2 |
| 20260510124518 | 64 | 151 | 1.0 | 1.0 | 0.00 | 0.16 | 0.16 | 99 | 1016.2 |
| 20260510124015 | 64 | 156 | 1.0 | 1.0 | 0.00 | 0.16 | 0.16 | 99 | 1016.2 |
| 20260510123510 | 64 | 160 | 2.0 | 2.0 | 0.00 | 0.16 | 0.16 | 99 | 1016.2 |
| 20260510123006 | 64 | 151 | 1.0 | 1.0 | 0.00 | 0.16 | 0.16 | 99 | 1016.1 |
| 20260510122502 | 64 | 137 | 1.0 | 2.0 | 0.00 | 0.16 | 0.16 | 99 | 1016.0 |
| 20260510121959 | 64 | 166 | 0.0 | 1.0 | 0.00 | 0.16 | 0.16 | 99 | 1015.9 |
| 20260510121455 | 64 | 165 | 1.0 | 1.0 | 0.00 | 0.16 | 0.16 | 99 | 1015.8 |
| 20260510120953 | 64 | 169 | 0.0 | 0.0 | 0.00 | 0.16 | 0.16 | 99 | 1015.8 |
| 20260510120450 | 64 | 166 | 0.0 | 0.0 | 0.00 | 0.16 | 0.16 | 99 | 1015.8 |
| 20260510115946 | 64 | 128 | 2.0 | 3.0 | 0.00 | 0.16 | 0.16 | 99 | 1015.6 |
| 20260510115443 | 64 | 164 | 1.0 | 1.0 | 0.00 | 0.16 | 0.16 | 99 | 1015.7 |
| 20260510114939 | 64 | 158 | 0.0 | 0.0 | 0.00 | 0.16 | 0.16 | 99 | 1015.8 |
| 20260510114436 | 64 | 170 | 0.0 | 0.0 | 0.00 | 0.16 | 0.16 | 99 | 1015.6 |
| 20260510113932 | 64 | 166 | 0.0 | 0.0 | 0.00 | 0.16 | 0.16 | 99 | 1015.7 |
| 20260510113427 | 64 | 171 | 0.0 | 0.0 | 0.00 | 0.16 | 0.16 | 99 | 1015.9 |
| 20260510112925 | 64 | 170 | 1.0 | 1.0 | 0.00 | 0.16 | 0.16 | 99 | 1015.7 |
| 20260510112422 | 64 | 181 | 0.0 | 0.0 | 0.00 | 0.16 | 0.16 | 99 | 1015.5 |
| 20260510111912 | 64 | 181 | 0.0 | 0.0 | 0.00 | 0.16 | 0.16 | 99 | 1015.4 |
| 20260510111408 | 64 | 177 | 0.0 | 0.0 | 0.00 | 0.16 | 0.16 | 99 | 1015.4 |
| 20260510110903 | 64 | 164 | 1.0 | 1.0 | 0.00 | 0.16 | 0.16 | 99 | 1015.5 |
| 20260510110400 | 64 | 184 | 0.0 | 0.0 | 0.00 | 0.16 | 0.16 | 99 | 1015.3 |
| 20260510105857 | 64 | 158 | 2.0 | 2.0 | 0.00 | 0.16 | 0.16 | 99 | 1015.4 |
| 20260510105351 | 64 | 167 | 0.0 | 0.0 | 0.00 | 0.16 | 0.16 | 99 | 1015.1 |
| 20260510104847 | 64 | 168 | 0.0 | 0.0 | 0.00 | 0.16 | 0.16 | 98 | 1015.2 |
| 20260510104344 | 64 | 187 | 0.0 | 0.0 | 0.00 | 0.16 | 0.16 | 98 | 1015.3 |
| 20260510103840 | 64 | 181 | 0.0 | 0.0 | 0.00 | 0.16 | 0.16 | 98 | 1015.2 |
| 20260510103338 | 64 | 177 | 1.0 | 1.0 | 0.00 | 0.16 | 0.16 | 98 | 1015.0 |
| 20260510102833 | 64 | 165 | 3.0 | 3.0 | 0.00 | 0.16 | 0.16 | 98 | 1015.1 |
| 20260510102329 | 64 | 135 | 0.0 | 0.0 | 0.00 | 0.16 | 0.16 | 98 | 1015.5 |
| 20260510101826 | 64 | 93 | 0.0 | 1.0 | 0.00 | 0.16 | 0.16 | 97 | 1015.4 |
| 20260510101324 | 64 | 83 | 1.0 | 1.0 | 0.00 | 0.16 | 0.16 | 97 | 1015.2 |
| 20260510100820 | 64 | 64 | 1.0 | 1.0 | 0.07 | 0.16 | 0.16 | 96 | 1014.9 |
| 20260510100318 | 65 | 65 | 1.0 | 2.0 | 0.26 | 0.16 | 0.16 | 96 | 1015.1 |
| 20260510095814 | 65 | 64 | 2.0 | 2.0 | 0.31 | 0.15 | 0.15 | 95 | 1015.3 |
| 20260510095309 | 66 | 65 | 2.0 | 3.0 | 0.42 | 0.13 | 0.13 | 94 | 1014.9 |
| 20260510094809 | 66 | 60 | 3.0 | 3.0 | 0.52 | 0.10 | 0.10 | 93 | 1015.2 |
| 20260510094304 | 68 | 61 | 3.0 | 6.0 | 0.35 | 0.06 | 0.06 | 88 | 1016.4 |
| 20260510093800 | 70 | 295 | 0.0 | 0.0 | 0.07 | 0.01 | 0.01 | 83 | 1017.4 |
| 20260510093257 | 70 | 347 | 3.0 | 5.0 | 0.00 | 0.00 | 0.00 | 81 | 1016.7 |
| 20260510092753 | 70 | 307 | 3.0 | 6.0 | 0.00 | 0.00 | 0.00 | 80 | 1016.2 |
| 20260510092249 | 71 | 255 | 6.0 | 10.0 | 0.00 | 0.00 | 0.00 | 81 | 1015.8 |
| 20260510091745 | 71 | 129 | 2.0 | 3.0 | 0.00 | 0.00 | 0.00 | 84 | 1015.4 |
| 20260510091242 | 72 | 341 | 3.0 | 7.0 | 0.00 | 0.00 | 0.00 | 90 | 1015.0 |
| 20260510090738 | 74 | 76 | 1.0 | 1.0 | 0.00 | 0.00 | 0.00 | 94 | 1014.6 |
| 20260510090236 | 74 | 99 | 0.0 | 1.0 | 0.00 | 0.00 | 0.00 | 94 | 1014.7 |
| 20260510085731 | 74 | 56 | 2.0 | 2.0 | 0.00 | 0.00 | 0.00 | 94 | 1014.3 |
| 20260510085226 | 74 | 351 | 1.0 | 1.0 | 0.00 | 0.00 | 0.00 | 93 | 1014.0 |
| 20260510084722 | 74 | 125 | 0.0 | 1.0 | 0.00 | 0.00 | 0.00 | 93 | 1013.5 |
| 20260510084219 | 74 | 67 | 1.0 | 1.0 | 0.00 | 0.00 | 0.00 | 93 | 1013.5 |
| 20260510083715 | 74 | 112 | 0.0 | 0.0 | 0.00 | 0.00 | 0.00 | 93 | 1013.5 |
| 20260510083213 | 74 | 108 | 1.0 | 1.0 | 0.00 | 0.00 | 0.00 | 93 | 1013.6 |
| 20260510082708 | 74 | 260 | 0.0 | 0.0 | 0.00 | 0.00 | 0.00 | 93 | 1013.7 |
| 20260510082205 | 74 | 294 | 1.0 | 2.0 | 0.00 | 0.00 | 0.00 | 93 | 1013.8 |
| 20260510081659 | 74 | 287 | 1.0 | 1.0 | 0.00 | 0.00 | 0.00 | 92 | 1013.7 |
| 20260510081155 | 74 | 286 | 1.0 | 2.0 | 0.00 | 0.00 | 0.00 | 92 | 1013.2 |
| 20260510080654 | 74 | 237 | 0.0 | 1.0 | 0.00 | 0.00 | 0.00 | 92 | 1013.1 |
| 20260510080152 | 74 | 194 | 0.0 | 0.0 | 0.00 | 0.00 | 0.00 | 91 | 1012.8 |
| 20260510075648 | 74 | 185 | 0.0 | 0.0 | 0.00 | 0.00 | 0.00 | 91 | 1012.6 |
| 20260510075146 | 74 | 185 | 0.0 | 0.0 | 0.00 | 0.00 | 0.00 | 90 | 1012.4 |
| 20260510074643 | 74 | 189 | 0.0 | 0.0 | 0.00 | 0.00 | 0.00 | 90 | 1012.2 |
| 20260510074138 | 74 | 190 | 0.0 | 0.0 | 0.00 | 0.00 | 0.00 | 90 | 1012.2 |
| 20260510073635 | 75 | 192 | 0.0 | 0.0 | 0.00 | 0.00 | 0.00 | 89 | 1012.1 |
| 20260510073132 | 75 | 191 | 0.0 | 0.0 | 0.00 | 0.00 | 0.00 | 89 | 1012.1 |
| 20260510072628 | 75 | 166 | 2.0 | 2.0 | 0.00 | 0.00 | 0.00 | 88 | 1011.7 |
| 20260510072124 | 76 | 160 | 1.0 | 2.0 | 0.00 | 0.00 | 0.00 | 87 | 1012.0 |
| 20260510071620 | 75 | 133 | 1.0 | 1.0 | 0.00 | 0.00 | 0.00 | 88 | 1012.0 |
| 20260510071118 | 75 | 112 | 0.0 | 0.0 | 0.00 | 0.00 | 0.00 | 88 | 1012.2 |
| 20260510070615 | 76 | 64 | 0.0 | 1.0 | 0.00 | 0.00 | 0.00 | 87 | 1012.6 |
| 20260510070113 | 76 | 8 | 0.0 | 0.0 | 0.00 | 0.00 | 0.00 | 86 | 1012.9 |
| 20260510065608 | 76 | 267 | 1.0 | 1.0 | 0.00 | 0.00 | 0.00 | 86 | 1013.1 |
| 20260510065105 | 76 | 273 | 1.0 | 2.0 | 0.00 | 0.00 | 0.00 | 85 | 1013.3 |
| 20260510064601 | 76 | 329 | 1.0 | 2.0 | 0.00 | 0.00 | 0.00 | 85 | 1013.3 |
| 20260510064058 | 76 | 291 | 1.0 | 1.0 | 0.00 | 0.00 | 0.00 | 85 | 1013.5 |
| 20260510063555 | 76 | 250 | 1.0 | 1.0 | 0.00 | 0.00 | 0.00 | 85 | 1013.4 |
| 20260510063052 | 76 | 250 | 0.0 | 1.0 | 0.00 | 0.00 | 0.00 | 85 | 1013.3 |
| 20260510062548 | 76 | 279 | 0.0 | 0.0 | 0.00 | 0.00 | 0.00 | 85 | 1013.1 |
| 20260510062043 | 76 | 352 | 2.0 | 2.0 | 0.00 | 0.00 | 0.00 | 85 | 1013.5 |
| 20260510061540 | 76 | 313 | 1.0 | 2.0 | 0.00 | 0.00 | 0.00 | 85 | 1013.2 |
| 20260510061037 | 75 | 153 | 1.0 | 1.0 | 0.00 | 0.00 | 0.00 | 85 | 1012.5 |
| 20260510060533 | 75 | 191 | 0.0 | 1.0 | 0.00 | 0.00 | 0.00 | 85 | 1012.0 |
| 20260510060029 | 75 | 143 | 1.0 | 1.0 | 0.00 | 0.00 | 0.00 | 85 | 1011.6 |
| 20260510055525 | 75 | 118 | 1.0 | 2.0 | 0.00 | 0.00 | 0.00 | 86 | 1011.3 |
| 20260510055024 | 76 | 151 | 1.0 | 1.0 | 0.00 | 0.00 | 0.00 | 85 | 1011.4 |
| 20260510054519 | 75 | 161 | 1.0 | 1.0 | 0.00 | 0.00 | 0.00 | 86 | 1011.4 |
| 20260510054014 | 75 | 103 | 3.0 | 3.0 | 0.00 | 0.00 | 0.00 | 86 | 1011.1 |
| 20260510053509 | 76 | 177 | 1.0 | 1.0 | 0.00 | 0.00 | 0.00 | 86 | 1011.2 |
| 20260510053006 | 76 | 169 | 1.0 | 1.0 | 0.00 | 0.00 | 0.00 | 85 | 1011.0 |
| 20260510052502 | 75 | 170 | 1.0 | 2.0 | 0.00 | 0.00 | 0.00 | 86 | 1010.8 |
| 20260510051958 | 76 | 119 | 3.0 | 3.0 | 0.00 | 0.00 | 0.00 | 85 | 1011.0 |
| 20260510051454 | 76 | 155 | 1.0 | 2.0 | 0.00 | 0.00 | 0.00 | 84 | 1011.2 |
| 20260510050951 | 76 | 153 | 2.0 | 3.0 | 0.00 | 0.00 | 0.00 | 84 | 1010.9 |
| 20260510050448 | 76 | 142 | 3.0 | 3.0 | 0.00 | 0.00 | 0.00 | 84 | 1011.0 |
| 20260510045945 | 76 | 131 | 1.0 | 2.0 | 0.00 | 0.00 | 0.00 | 84 | 1010.9 |
| 20260510045442 | 76 | 161 | 1.0 | 2.0 | 0.00 | 0.00 | 0.00 | 83 | 1010.7 |
| 20260510044939 | 76 | 137 | 2.0 | 3.0 | 0.00 | 0.00 | 0.00 | 82 | 1010.7 |
| 20260510044436 | 76 | 143 | 2.0 | 2.0 | 0.00 | 0.00 | 0.00 | 81 | 1010.6 |
| 20260510043932 | 77 | 106 | 2.0 | 3.0 | 0.00 | 0.00 | 0.00 | 80 | 1010.5 |
| 20260510043428 | 77 | 128 | 3.0 | 3.0 | 0.00 | 0.00 | 0.00 | 78 | 1010.6 |
| 20260510042927 | 77 | 140 | 2.0 | 2.0 | 0.00 | 0.00 | 0.00 | 77 | 1010.4 |
| 20260510042422 | 77 | 137 | 3.0 | 5.0 | 0.00 | 0.00 | 0.00 | 76 | 1010.5 |
| 20260510041918 | 77 | 156 | 2.0 | 2.0 | 0.00 | 0.00 | 0.00 | 74 | 1010.6 |
| 20260510041416 | 77 | 144 | 1.0 | 1.0 | 0.00 | 0.00 | 0.00 | 74 | 1010.8 |
| 20260510040913 | 77 | 154 | 0.0 | 0.0 | 0.00 | 0.00 | 0.00 | 74 | 1010.8 |
| 20260510040410 | 77 | 154 | 1.0 | 2.0 | 0.00 | 0.00 | 0.00 | 74 | 1010.8 |
| 20260510035905 | 77 | 165 | 1.0 | 1.0 | 0.00 | 0.00 | 0.00 | 73 | 1010.8 |
| 20260510035402 | 77 | 161 | 1.0 | 2.0 | 0.00 | 0.00 | 0.00 | 73 | 1011.0 |
| 20260510034856 | 78 | 161 | 1.0 | 1.0 | 0.00 | 0.00 | 0.00 | 72 | 1010.9 |
| 20260510034356 | 78 | 142 | 1.0 | 2.0 | 0.00 | 0.00 | 0.00 | 71 | 1010.8 |
| 20260510033851 | 77 | 168 | 0.0 | 0.0 | 0.00 | 0.00 | 0.00 | 72 | 1010.8 |
| 20260510033348 | 78 | 166 | 1.0 | 1.0 | 0.00 | 0.00 | 0.00 | 71 | 1010.6 |
| 20260510032844 | 78 | 164 | 1.0 | 1.0 | 0.00 | 0.00 | 0.00 | 71 | 1010.7 |
| 20260510032341 | 78 | 158 | 1.0 | 1.0 | 0.00 | 0.00 | 0.00 | 70 | 1010.8 |
| 20260510031837 | 78 | 163 | 0.0 | 1.0 | 0.00 | 0.00 | 0.00 | 70 | 1010.8 |
| 20260510031332 | 78 | 158 | 1.0 | 2.0 | 0.00 | 0.00 | 0.00 | 71 | 1010.8 |
| 20260510030832 | 78 | 167 | 0.0 | 0.0 | 0.00 | 0.00 | 0.00 | 71 | 1010.7 |
| 20260510030329 | 78 | 172 | 0.0 | 0.0 | 0.00 | 0.00 | 0.00 | 71 | 1010.8 |
| 20260510025826 | 78 | 150 | 0.0 | 0.0 | 0.00 | 0.00 | 0.00 | 71 | 1010.8 |
| 20260510025324 | 78 | 150 | 0.0 | 0.0 | 0.00 | 0.00 | 0.00 | 70 | 1010.8 |
| 20260510024820 | 78 | 151 | 0.0 | 0.0 | 0.00 | 0.00 | 0.00 | 70 | 1010.9 |
| 20260510024318 | 79 | 145 | 0.0 | 0.0 | 0.00 | 0.00 | 0.00 | 70 | 1010.8 |
| 20260510023814 | 79 | 146 | 0.0 | 0.0 | 0.00 | 0.00 | 0.00 | 69 | 1010.8 |
| 20260510023310 | 79 | 129 | 1.0 | 1.0 | 0.00 | 0.00 | 0.00 | 68 | 1010.8 |
| 20260510022807 | 79 | 126 | 0.0 | 1.0 | 0.00 | 0.00 | 0.00 | 68 | 1010.6 |
| 20260510022307 | 79 | 141 | 0.0 | 1.0 | 0.00 | 0.00 | 0.00 | 68 | 1010.3 |
| 20260510021806 | 80 | 141 | 0.0 | 1.0 | 0.00 | 0.00 | 0.00 | 67 | 1010.5 |
| 20260510021304 | 80 | 117 | 0.0 | 0.0 | 0.00 | 0.00 | 0.00 | 66 | 1010.6 |
| 20260510020800 | 80 | 114 | 1.0 | 1.0 | 0.00 | 0.00 | 0.00 | 66 | 1010.2 |
| 20260510020300 | 80 | 135 | 1.0 | 1.0 | 0.00 | 0.00 | 0.00 | 66 | 1010.4 |
| 20260510015756 | 80 | 137 | 0.0 | 1.0 | 0.00 | 0.00 | 0.00 | 65 | 1010.2 |
| 20260510015252 | 81 | 127 | 0.0 | 1.0 | 0.00 | 0.00 | 0.00 | 64 | 1010.3 |
| 20260510014747 | 81 | 104 | 1.0 | 1.0 | 0.00 | 0.00 | 0.00 | 63 | 1010.2 |
| 20260510014245 | 81 | 125 | 1.0 | 1.0 | 0.00 | 0.00 | 0.00 | 63 | 1010.4 |
| 20260510013741 | 81 | 103 | 1.0 | 1.0 | 0.00 | 0.00 | 0.00 | 62 | 1010.3 |
| 20260510013236 | 82 | 115 | 0.0 | 1.0 | 0.00 | 0.00 | 0.00 | 61 | 1010.0 |
| 20260510012731 | 82 | 93 | 1.0 | 1.0 | 0.00 | 0.00 | 0.00 | 61 | 1010.0 |
| 20260510012227 | 82 | 131 | 0.0 | 0.0 | 0.00 | 0.00 | 0.00 | 61 | 1009.9 |
| 20260510011727 | 82 | 148 | 0.0 | 0.0 | 0.00 | 0.00 | 0.00 | 60 | 1009.7 |
| 20260510011222 | 83 | 130 | 0.0 | 1.0 | 0.00 | 0.00 | 0.00 | 58 | 1009.8 |
| 20260510010719 | 83 | 97 | 2.0 | 2.0 | 0.00 | 0.00 | 0.00 | 58 | 1009.6 |
| 20260510010216 | 83 | 90 | 1.0 | 1.0 | 0.00 | 0.00 | 0.00 | 57 | 1009.7 |
| 20260510005713 | 84 | 116 | 0.0 | 0.0 | 0.00 | 0.00 | 0.00 | 56 | 1009.7 |
| 20260510005209 | 84 | 78 | 1.0 | 1.0 | 0.00 | 0.00 | 0.00 | 55 | 1009.5 |
| 20260510004707 | 84 | 99 | 1.0 | 1.0 | 0.00 | 0.00 | 0.00 | 55 | 1009.5 |
| 20260510004204 | 84 | 145 | 0.0 | 1.0 | 0.00 | 0.00 | 0.00 | 54 | 1009.7 |
| 20260510003702 | 85 | 90 | 1.0 | 1.0 | 0.00 | 0.00 | 0.00 | 53 | 1009.7 |
| 20260510003158 | 85 | 75 | 1.0 | 1.0 | 0.00 | 0.00 | 0.00 | 51 | 1009.5 |
| 20260510002657 | 85 | 67 | 1.0 | 2.0 | 0.00 | 0.00 | 0.00 | 51 | 1009.4 |
| 20260510002155 | 85 | 107 | 0.0 | 1.0 | 0.00 | 0.00 | 0.00 | 50 | 1009.6 |
| 20260510001651 | 86 | 117 | 1.0 | 1.0 | 0.00 | 0.00 | 0.00 | 50 | 1009.5 |
| 20260510001150 | 87 | 110 | 1.0 | 1.0 | 0.00 | 0.00 | 0.00 | 50 | 1009.6 |
| 20260510000650 | 86 | 109 | 1.0 | 1.0 | 0.00 | 0.00 | 0.00 | 51 | 1009.7 |
| 20260510000148 | 86 | 140 | 1.0 | 2.0 | 0.00 | 0.00 | 0.00 | 51 | 1009.6 |
| 20260509235644 | 86 | 135 | 0.0 | 1.0 | 0.00 | 0.00 | 0.00 | 51 | 1009.6 |
| 20260509235141 | 87 | 79 | 1.0 | 1.0 | 0.00 | 0.00 | 0.00 | 50 | 1009.5 |
| 20260509234637 | 87 | 146 | 0.0 | 0.0 | 0.00 | 0.00 | 0.00 | 51 | 1009.4 |
| 20260509234135 | 87 | 166 | 0.0 | 1.0 | 0.00 | 0.00 | 0.00 | 50 | 1009.4 |
| 20260509233633 | 87 | 187 | 0.0 | 0.0 | 0.00 | 0.00 | 0.00 | 51 | 1009.7 |
| 20260509233130 | 87 | 158 | 1.0 | 2.0 | 0.00 | 0.00 | 0.00 | 50 | 1009.7 |
| 20260509232626 | 87 | 167 | 0.0 | 1.0 | 0.00 | 0.00 | 0.00 | 49 | 1009.7 |
| 20260509232123 | 87 | 162 | 0.0 | 1.0 | 0.00 | 0.00 | 0.00 | 51 | 1009.5 |
| 20260509231619 | 87 | 165 | 0.0 | 0.0 | 0.00 | 0.00 | 0.00 | 50 | 1009.6 |
| 20260509231117 | 88 | 307 | 4.0 | 5.0 | 0.00 | 0.00 | 0.00 | 49 | 1009.6 |
| 20260509230614 | 88 | 299 | 2.0 | 2.0 | 0.00 | 0.00 | 0.00 | 50 | 1009.5 |
| 20260509230111 | 87 | 156 | 1.0 | 1.0 | 0.00 | 0.00 | 0.00 | 51 | 1009.6 |
| 20260509225607 | 87 | 140 | 0.0 | 1.0 | 0.00 | 0.00 | 0.00 | 51 | 1009.7 |
| 20260509225102 | 88 | 84 | 0.0 | 1.0 | 0.00 | 0.00 | 0.00 | 51 | 1009.7 |
| 20260509224557 | 88 | 88 | 1.0 | 1.0 | 0.00 | 0.00 | 0.00 | 51 | 1009.4 |
| 20260509224055 | 88 | 78 | 0.0 | 1.0 | 0.00 | 0.00 | 0.00 | 51 | 1009.5 |
| 20260509223552 | 87 | 96 | 1.0 | 1.0 | 0.00 | 0.00 | 0.00 | 52 | 1009.7 |
| 20260509223049 | 88 | 169 | 1.0 | 2.0 | 0.00 | 0.00 | 0.00 | 51 | 1009.6 |
| 20260509222545 | 89 | 112 | 4.0 | 5.0 | 0.00 | 0.00 | 0.00 | 50 | 1009.5 |
| 20260509222041 | 88 | 186 | 0.0 | 0.0 | 0.00 | 0.00 | 0.00 | 53 | 1009.2 |
| 20260509221537 | 88 | 125 | 1.0 | 1.0 | 0.00 | 0.00 | 0.00 | 54 | 1009.5 |
| 20260509221033 | 87 | 128 | 2.0 | 2.0 | 0.00 | 0.00 | 0.00 | 55 | 1009.1 |
| 20260509220529 | 89 | 68 | 1.0 | 1.0 | 0.00 | 0.00 | 0.00 | 53 | 1009.5 |
| 20260509220026 | 89 | 156 | 0.0 | 1.0 | 0.00 | 0.00 | 0.00 | 52 | 1009.5 |
| 20260509215521 | 89 | 84 | 1.0 | 1.0 | 0.00 | 0.00 | 0.00 | 53 | 1009.5 |
| 20260509215019 | 88 | 129 | 1.0 | 1.0 | 0.00 | 0.00 | 0.00 | 54 | 1009.7 |
| 20260509214516 | 88 | 113 | 1.0 | 1.0 | 0.00 | 0.00 | 0.00 | 52 | 1009.5 |
| 20260509214013 | 90 | 239 | 0.0 | 1.0 | 0.00 | 0.00 | 0.00 | 52 | 1009.7 |
| 20260509213509 | 89 | 72 | 1.0 | 2.0 | 0.00 | 0.00 | 0.00 | 53 | 1009.7 |
| 20260509213006 | 88 | 78 | 1.0 | 1.0 | 0.00 | 0.00 | 0.00 | 54 | 1009.9 |
| 20260509212503 | 88 | 186 | 0.0 | 1.0 | 0.00 | 0.00 | 0.00 | 54 | 1009.8 |
| 20260509211959 | 89 | 230 | 0.0 | 0.0 | 0.00 | 0.00 | 0.00 | 54 | 1009.9 |
| 20260509211455 | 89 | 140 | 0.0 | 1.0 | 0.00 | 0.00 | 0.00 | 54 | 1010.0 |
| 20260509210952 | 89 | 98 | 2.0 | 3.0 | 0.00 | 0.00 | 0.00 | 55 | 1010.1 |
| 20260509210448 | 89 | 57 | 2.0 | 3.0 | 0.00 | 0.00 | 0.00 | 54 | 1010.1 |
| 20260509205944 | 89 | 88 | 0.0 | 1.0 | 0.00 | 0.00 | 0.00 | 54 | 1010.1 |
| 20260509205439 | 88 | 165 | 0.0 | 0.0 | 0.00 | 0.00 | 0.00 | 56 | 1010.0 |
| 20260509204935 | 88 | 131 | 1.0 | 1.0 | 0.00 | 0.00 | 0.00 | 56 | 1010.4 |
| 20260509204426 | 88 | 133 | 0.0 | 1.0 | 0.00 | 0.00 | 0.00 | 57 | 1010.3 |
| 20260509203923 | 87 | 143 | 1.0 | 1.0 | 0.00 | 0.00 | 0.00 | 56 | 1010.4 |
| 20260509203418 | 88 | 105 | 2.0 | 3.0 | 0.00 | 0.00 | 0.00 | 58 | 1010.6 |
| 20260509202916 | 88 | 105 | 2.0 | 2.0 | 0.00 | 0.00 | 0.00 | 56 | 1010.4 |
| 20260509202412 | 88 | 166 | 2.0 | 2.0 | 0.00 | 0.00 | 0.00 | 57 | 1010.5 |
| 20260509201907 | 88 | 64 | 1.0 | 1.0 | 0.00 | 0.00 | 0.00 | 59 | 1010.7 |
| 20260509201402 | 87 | 85 | 1.0 | 2.0 | 0.00 | 0.00 | 0.00 | 60 | 1010.9 |
| 20260509200900 | 89 | 150 | 0.0 | 1.0 | 0.00 | 0.00 | 0.00 | 57 | 1010.8 |
| 20260509200359 | 88 | 79 | 1.0 | 2.0 | 0.00 | 0.00 | 0.00 | 58 | 1010.5 |
| 20260509195857 | 87 | 88 | 0.0 | 1.0 | 0.00 | 0.00 | 0.00 | 60 | 1010.6 |
| 20260509195356 | 87 | 68 | 0.0 | 1.0 | 0.00 | 0.00 | 0.00 | 61 | 1010.7 |
| 20260509194851 | 89 | 169 | 1.0 | 1.0 | 0.00 | 0.00 | 0.00 | 58 | 1010.9 |
| 20260509194347 | 88 | 90 | 1.0 | 2.0 | 0.00 | 0.00 | 0.00 | 58 | 1011.0 |
| 20260509193844 | 89 | 103 | 1.0 | 2.0 | 0.00 | 0.00 | 0.00 | 59 | 1011.0 |
| 20260509193344 | 88 | 155 | 0.0 | 1.0 | 0.00 | 0.00 | 0.00 | 60 | 1011.0 |
| 20260509192840 | 87 | 247 | 2.0 | 2.0 | 0.00 | 0.00 | 0.00 | 60 | 1010.8 |
| 20260509192336 | 88 | 267 | 2.0 | 2.0 | 0.00 | 0.00 | 0.00 | 59 | 1010.9 |
| 20260509191832 | 88 | 20 | 2.0 | 5.0 | 0.00 | 0.00 | 0.00 | 61 | 1011.1 |
| 20260509191328 | 87 | 210 | 3.0 | 5.0 | 0.00 | 0.00 | 0.00 | 62 | 1011.1 |
| 20260509190824 | 86 | 357 | 3.0 | 5.0 | 0.00 | 0.00 | 0.00 | 63 | 1011.2 |
| 20260509190321 | 86 | 253 | 1.0 | 1.0 | 0.00 | 0.00 | 0.00 | 65 | 1011.1 |
| 20260509185818 | 86 | 83 | 0.0 | 0.0 | 0.00 | 0.00 | 0.00 | 64 | 1011.2 |
| 20260509185314 | 86 | 131 | 1.0 | 1.0 | 0.00 | 0.00 | 0.00 | 64 | 1011.3 |
| 20260509184812 | 87 | 273 | 2.0 | 2.0 | 0.00 | 0.00 | 0.00 | 63 | 1011.3 |
| 20260509184309 | 86 | 248 | 0.0 | 1.0 | 0.00 | 0.00 | 0.00 | 64 | 1011.3 |
| 20260509183806 | 86 | 187 | 0.0 | 1.0 | 0.00 | 0.00 | 0.00 | 65 | 1011.2 |
| 20260509183301 | 86 | 308 | 3.0 | 5.0 | 0.00 | 0.00 | 0.00 | 64 | 1011.4 |
| 20260509182756 | 86 | 182 | 0.0 | 1.0 | 0.00 | 0.00 | 0.00 | 65 | 1011.3 |
| 20260509182254 | 84 | 243 | 0.0 | 0.0 | 0.00 | 0.00 | 0.00 | 67 | 1011.2 |
| 20260509181751 | 86 | 311 | 5.0 | 7.0 | 0.00 | 0.00 | 0.00 | 63 | 1011.3 |
| 20260509181249 | 86 | 6 | 1.0 | 2.0 | 0.00 | 0.00 | 0.00 | 64 | 1011.6 |
| 20260509180746 | 86 | 289 | 1.0 | 2.0 | 0.00 | 0.00 | 0.00 | 67 | 1011.6 |
| 20260509180242 | 84 | 291 | 2.0 | 3.0 | 0.00 | 0.00 | 0.00 | 67 | 1011.7 |
| 20260509175739 | 84 | 217 | 1.0 | 2.0 | 0.00 | 0.00 | 0.00 | 68 | 1011.8 |
| 20260509175235 | 85 | 11 | 4.0 | 6.0 | 0.00 | 0.00 | 0.00 | 66 | 1011.6 |
| 20260509174731 | 85 | 166 | 0.0 | 1.0 | 0.00 | 0.00 | 0.00 | 66 | 1011.8 |
| 20260509174226 | 85 | 21 | 1.0 | 2.0 | 0.00 | 0.00 | 0.00 | 67 | 1011.7 |